EW2795 Weather Reports


Display with metric or nautical units.
time (UTC)temp
F
wind
direction
speed
MPH
gust
MPH
rain 1hr
in
rain 24hr
in
rain mn
in
humidity
%
barometer
mb
20260902160010 86 226 3.0 0.0 0.00 0.00 0.00 76 1014.6
20260902154559 86 204 3.0 0.0 0.00 0.00 0.00 77 1014.7
20260902154503 86 202 3.0 0.0 0.00 0.00 0.00 77 1014.8
20260902153052 85 188 3.0 0.0 0.00 0.00 0.00 77 1014.8
20260902151544 84 182 4.0 0.0 0.00 0.00 0.00 78 1014.8
20260902150036 84 217 3.0 0.0 0.00 0.00 0.00 79 1014.8
20260902144529 83 185 3.0 0.0 0.00 0.00 0.00 81 1014.6
20260902143003 82 209 3.0 0.0 0.00 0.00 0.00 83 1014.7
20260902141548 80 207 4.0 0.0 0.00 0.00 0.00 83 1014.7
20260902140025 80 225 3.0 0.0 0.00 0.00 0.00 85 1014.7
20260902134526 79 222 2.0 0.0 0.00 0.00 0.00 87 1014.8
20260902133057 78 195 2.0 0.0 0.00 0.00 0.00 88 1014.9
20260902133002 78 190 2.0 0.0 0.00 0.00 0.00 89 1014.8
20260902131547 77 195 2.0 0.0 0.00 0.00 0.00 90 1014.8
20260902130033 76 195 2.0 0.0 0.00 0.00 0.00 92 1014.8
20260902124521 75 186 1.0 0.0 0.00 0.00 0.00 93 1014.6
20260902123011 74 186 1.0 0.0 0.00 0.00 0.00 95 1014.8
20260902121612 73 184 1.0 0.0 0.00 0.00 0.00 96 1014.7
20260902121501 73 184 1.0 0.0 0.00 0.00 0.00 96 1014.7
20260902120036 73 183 1.0 0.0 0.00 0.00 0.00 96 1014.9
20260902114534 72 182 2.0 0.0 0.00 0.00 0.00 97 1014.7
20260902113031 72 212 1.0 0.0 0.00 0.00 0.00 97 1014.6
20260902111603 71 213 0.0 0.0 0.00 0.00 0.00 97 1014.5
20260902111501 71 213 0.0 0.0 0.00 0.00 0.00 97 1014.4
20260902110055 71 214 0.0 0.0 0.00 0.00 0.00 97 1014.3
20260902104549 71 214 0.0 0.0 0.00 0.00 0.00 96 1014.1
20260902103030 71 214 0.0 0.0 0.00 0.00 0.00 97 1014.2
20260902101530 71 217 0.0 0.0 0.00 0.00 0.00 96 1014.1
20260902100021 71 217 0.0 0.0 0.00 0.00 0.00 96 1014.3
20260902094517 71 217 0.0 0.0 0.00 0.00 0.00 96 1014.1
20260902093006 71 217 0.0 0.0 0.00 0.00 0.00 96 1014.2
20260902091556 71 217 0.0 0.0 0.00 0.00 0.00 96 1014.1
20260902090054 71 217 0.0 0.0 0.00 0.00 0.00 96 1014.1
20260902090001 71 217 0.0 0.0 0.00 0.00 0.00 96 1014.1
20260902084557 71 217 0.0 0.0 0.00 0.00 0.00 96 1014.1
20260902083042 71 217 0.0 0.0 0.00 0.00 0.00 96 1014.0
20260902081531 72 217 0.0 0.0 0.00 0.00 0.00 96 1013.9
20260902080026 72 217 0.0 0.0 0.00 0.00 0.00 96 1013.8
20260902074517 72 217 0.0 0.0 0.00 0.00 0.00 96 1013.7
20260902073017 72 217 0.0 0.0 0.00 0.00 0.00 95 1013.7
20260902071513 72 217 0.0 0.0 0.00 0.00 0.00 95 1013.8
20260902070056 73 217 0.0 0.0 0.00 0.00 0.00 95 1013.7
20260902064549 73 217 0.0 0.0 0.00 0.00 0.00 94 1013.9
20260902063046 74 217 0.0 0.0 0.00 0.00 0.00 94 1014.0
20260902061522 74 217 0.0 0.0 0.00 0.00 0.00 94 1014.1
20260902060016 74 217 0.0 0.0 0.00 0.00 0.00 94 1014.0
20260902054557 74 217 0.0 0.0 0.00 0.00 0.00 93 1013.9
20260902053052 74 217 0.0 0.0 0.00 0.00 0.00 93 1013.6
20260902051540 74 218 1.0 0.0 0.00 0.00 0.00 94 1013.5
20260902050030 75 219 0.0 0.0 0.00 0.00 0.00 94 1013.5
20260902044520 75 219 0.0 0.0 0.00 0.00 0.00 93 1013.6
20260902043012 75 219 0.0 0.0 0.00 0.00 0.00 92 1013.6
20260902041506 76 219 0.0 0.0 0.00 0.00 0.00 90 1013.6
20260902040044 77 219 0.0 0.0 0.00 0.00 0.00 88 1013.7
20260902034538 78 218 0.0 0.0 0.00 0.00 0.95 87 1013.6
20260902033028 78 219 1.0 0.0 0.00 0.00 0.95 86 1013.6
20260902031522 79 218 1.0 0.0 0.00 0.00 0.95 85 1013.4
20260902030115 79 198 1.0 0.0 0.00 0.00 0.95 84 1013.3
20260902024537 79 213 2.0 0.0 0.00 0.00 0.95 84 1013.2
20260902023040 80 221 2.0 0.0 0.00 0.00 0.95 84 1013.1
20260902021518 79 209 3.0 0.0 0.00 0.00 0.95 85 1012.8
20260902020010 79 228 3.0 0.0 0.00 0.00 0.95 86 1012.7
20260902014600 78 217 2.0 0.0 0.00 0.00 0.95 88 1012.7
20260902014505 78 217 2.0 0.0 0.00 0.00 0.95 88 1012.8
20260902013050 78 215 1.0 0.0 0.00 0.00 0.95 90 1013.0
20260902011549 78 215 0.0 0.0 0.00 0.00 0.95 91 1012.8
20260902010028 80 215 0.0 0.0 0.00 0.00 0.95 90 1012.6
20260902004516 80 215 2.0 0.0 0.00 0.00 0.95 89 1012.3
20260902003011 80 218 2.0 0.0 0.00 0.00 0.95 91 1012.4
20260902001554 80 194 1.0 0.0 0.00 0.00 0.95 92 1012.6
20260902000045 82 183 0.0 0.0 0.00 0.00 0.95 91 1012.9
20260901234530 82 184 0.0 0.0 0.00 0.00 0.95 90 1013.1
20260901233022 84 184 0.0 0.0 0.00 0.00 0.95 88 1013.3
20260901231518 84 183 0.0 0.0 0.00 0.00 0.95 89 1013.3
20260901230011 84 183 0.0 0.0 0.00 0.00 0.95 89 1013.4
20260901224512 84 183 0.0 0.0 0.00 0.00 0.95 90 1013.2
20260901223009 84 183 0.0 0.0 0.00 0.00 0.95 88 1013.3
20260901221602 85 184 0.0 0.0 0.00 0.00 0.95 85 1013.3
20260901221502 85 184 0.0 0.0 0.00 0.00 0.95 85 1013.3
20260901220045 85 183 1.0 0.0 0.00 0.00 0.95 86 1013.3
20260901214547 85 183 0.0 0.0 0.00 0.00 0.95 86 1013.5
20260901213020 86 183 0.0 0.0 0.00 0.00 0.95 83 1013.5
20260901211509 86 183 1.0 0.0 0.00 0.00 0.95 84 1013.6
20260901210110 85 183 1.0 0.0 0.00 0.00 0.95 83 1013.8
20260901204541 85 184 1.0 0.0 0.00 0.00 0.95 84 1013.9
20260901203037 85 183 1.0 0.0 0.00 0.00 0.95 83 1013.9
20260901201525 85 171 2.0 0.0 0.00 0.00 0.95 82 1013.8
20260901200017 85 186 3.0 0.0 0.00 0.00 0.95 85 1013.6
20260901194506 84 188 3.0 0.0 0.00 0.00 0.95 85 1014.0
20260901193047 81 191 2.0 0.0 0.00 0.00 0.95 90 1014.1
20260901191540 79 172 1.0 0.0 0.00 0.00 0.95 92 1014.1
20260901190021 78 173 3.0 0.0 0.00 0.00 0.95 92 1014.3
20260901184509 78 195 3.0 0.0 0.00 0.00 0.95 92 1014.1
20260901183108 78 167 4.0 0.0 0.00 0.00 0.95 92 1014.2
20260901181542 77 193 3.0 0.0 0.00 0.00 0.95 94 1014.4
20260901180033 76 190 3.0 0.0 0.00 0.00 0.95 97 1014.3
20260901174522 74 144 2.0 0.0 0.00 0.00 0.95 96 1014.8
20260901173025 74 192 2.0 0.0 0.00 0.00 0.95 96 1015.2
20260901171510 73 201 4.0 0.0 0.00 0.00 0.93 96 1015.4
20260901170053 74 215 2.0 0.0 0.00 0.00 0.89 96 1015.8
20260901164547 73 190 2.0 0.0 0.00 0.00 0.75 96 1015.5
20260901163036 73 217 1.0 0.0 0.00 0.00 0.75 96 1015.8
20260901161526 73 203 2.0 0.0 0.00 0.00 0.65 96 1015.3